TimeHST,TemperatureF,Dew PointF,Humidity,Sea Level PressureIn,VisibilityMPH,Wind Direction,Wind SpeedMPH,Gust SpeedMPH,PrecipitationIn,Events,Conditions,WindDirDegrees,DateUTC
12:15 AM,69.8,66.2,88,30.09,10.0,ENE,12.7,21.9,0.00,Rain,Light Rain,70,2013-02-23 10:15:00
12:29 AM,69.8,66.2,88,30.09,10.0,ENE,10.4,19.6,0.00,,Scattered Clouds,60,2013-02-23 10:29:00
12:54 AM,70.0,66.9,90,30.11,10.0,ENE,17.3,26.5,0.00,,Partly Cloudy,70,2013-02-23 10:54:00
1:54 AM,70.0,64.0,81,30.10,10.0,ENE,15.0,23.0,N/A,,Clear,60,2013-02-23 11:54:00
2:54 AM,68.0,63.0,84,30.09,10.0,NE,12.7,27.6,N/A,,Clear,50,2013-02-23 12:54:00
3:54 AM,69.1,60.1,73,30.07,10.0,Variable,5.8,-,N/A,,Clear,0,2013-02-23 13:54:00
4:54 AM,68.0,61.0,78,30.06,10.0,ESE,4.6,-,N/A,,Clear,110,2013-02-23 14:54:00
5:54 AM,68.0,63.0,84,30.08,10.0,NE,17.3,23.0,N/A,,Clear,50,2013-02-23 15:54:00
6:54 AM,68.0,63.0,84,30.11,10.0,ENE,11.5,17.3,N/A,,Partly Cloudy,60,2013-02-23 16:54:00
7:54 AM,70.0,62.1,76,30.13,10.0,NE,8.1,-,N/A,,Partly Cloudy,50,2013-02-23 17:54:00
8:54 AM,73.9,64.0,71,30.13,10.0,NE,20.7,29.9,N/A,,Partly Cloudy,50,2013-02-23 18:54:00
9:54 AM,75.9,64.0,67,30.14,10.0,ENE,17.3,25.3,N/A,,Scattered Clouds,60,2013-02-23 19:54:00
10:54 AM,77.0,64.9,66,30.12,10.0,ENE,19.6,27.6,N/A,,Scattered Clouds,60,2013-02-23 20:54:00
11:54 AM,79.0,64.0,60,30.11,10.0,ENE,21.9,29.9,N/A,,Scattered Clouds,70,2013-02-23 21:54:00
12:54 PM,79.0,63.0,58,30.09,10.0,ENE,26.5,35.7,N/A,,Scattered Clouds,60,2013-02-23 22:54:00
1:54 PM,78.1,64.0,62,30.06,10.0,ENE,24.2,33.4,N/A,,Scattered Clouds,70,2013-02-23 23:54:00
2:54 PM,79.0,61.0,54,30.04,10.0,NE,25.3,35.7,N/A,,Scattered Clouds,50,2013-02-24 00:54:00
4:54 PM,75.9,64.0,67,30.05,10.0,ENE,18.4,38.0,N/A,,Scattered Clouds,70,2013-02-24 02:54:00
5:54 PM,73.0,64.0,73,30.08,10.0,ENE,17.3,27.6,N/A,,Scattered Clouds,70,2013-02-24 03:54:00
6:54 PM,71.1,66.0,84,30.11,10.0,ENE,12.7,25.3,N/A,,Mostly Cloudy,60,2013-02-24 04:54:00
7:54 PM,69.1,66.0,90,30.14,10.0,ENE,13.8,23.0,0.00,Rain,Light Rain,60,2013-02-24 05:54:00
8:54 PM,69.1,64.9,87,30.15,10.0,NE,10.4,20.7,0.00,,Overcast,50,2013-02-24 06:54:00
9:54 PM,70.0,64.0,81,30.15,10.0,ENE,13.8,21.9,N/A,,Partly Cloudy,60,2013-02-24 07:54:00
10:54 PM,70.0,63.0,78,30.14,10.0,NE,10.4,-,N/A,,Clear,50,2013-02-24 08:54:00
11:54 PM,70.0,64.0,81,30.13,10.0,ENE,10.4,21.9,N/A,,Mostly Cloudy,60,2013-02-24 09:54:00